Total_Precipitation_Accumulation
0.03 0.06 0.13 0.21 0.20 0.14 0.10 0.08 0.10 0.12 0.21 0.36 0.55 0.69 0.76 0.79 0.84 0.72 0.62 0.67 0.72 0.80 0.86 0.93 0.99 0.98 0.99 1.09 1.11 1.24 1.52 1.64 1.75 1.76 1.79 1.91 1.99 1.95 1.99 1.99 1.97 2.14 2.18 2.14
0.04 0.06 0.09 0.13 0.17 0.13 0.10 0.10 0.11 0.14 0.24 0.38 0.59 0.67 0.76 0.74 0.75 0.72 0.75 0.77 0.85 0.89 0.93 0.96 1.01 1.11 1.17 1.18 1.21 1.41 1.83 2.08 2.19 2.24 2.28 2.33 2.38 2.37 2.39 2.33 2.43 2.47 2.34 2.26
0.06 0.08 0.11 0.16 0.15 0.14 0.13 0.13 0.17 0.22 0.32 0.42 0.57 0.75 0.86 0.76 0.64 0.65 0.68 0.73 0.81 0.96 1.07 1.06 1.08 1.16 1.25 1.33 1.40 1.55 1.84 2.04 2.14 2.26 2.37 2.53 2.57 2.60 2.59 2.60 2.61 2.60 2.64 2.57
0.12 0.14 0.21 0.21 0.22 0.23 0.22 0.24 0.27 0.38 0.50 0.54 0.58 0.68 0.73 0.63 0.61 0.65 0.68 0.79 0.90 0.94 1.08 1.17 1.25 1.37 1.59 1.76 1.89 1.94 2.07 2.26 2.37 2.35 2.37 2.45 2.47 2.41 2.43 2.56 2.59 2.54 2.45 2.35
0.24 0.24 0.23 0.27 0.33 0.33 0.34 0.45 0.51 0.64 0.76 0.82 0.80 0.77 0.87 0.79 0.73 0.74 0.83 0.93 1.11 1.25 1.28 1.37 1.47 1.61 1.78 2.04 2.17 2.19 2.18 2.36 2.50 2.59 2.66 2.56 2.45 2.48 2.53 2.57 2.43 2.33 2.24 2.23
0.36 0.41 0.43 0.40 0.45 0.43 0.48 0.83 0.78 0.84 0.96 1.02 1.09 1.32 1.31 1.03 1.01 0.91 0.88 1.00 1.11 1.30 1.45 1.49 1.65 1.75 1.83 1.96 2.08 2.18 2.17 2.25 2.41 2.51 2.67 2.78 2.71 2.72 2.68 2.60 2.49 2.42 2.34 2.35
0.47 0.53 0.53 0.48 0.46 0.52 0.95 1.33 1.12 1.07 1.13 1.21 1.33 1.35 1.25 1.09 1.13 1.16 1.02 1.00 1.04 1.11 1.28 1.39 1.49 1.58 1.75 1.86 1.87 1.97 2.02 2.01 2.16 2.38 2.55 2.67 2.79 2.82 2.83 2.75 2.63 2.44 2.29 2.23
0.66 0.84 0.95 0.65 0.57 0.87 1.18 1.18 1.30 1.23 1.23 1.33 1.37 1.39 1.37 1.32 1.26 1.20 1.12 1.04 1.06 1.13 1.22 1.31 1.45 1.68 1.88 1.92 1.90 1.91 1.98 2.08 2.21 2.40 2.49 2.50 2.56 2.64 2.77 2.76 2.69 2.60 2.36 2.17
1.02 1.18 1.07 0.78 0.81 0.92 0.96 1.14 1.24 1.27 1.28 1.33 1.35 1.33 1.27 1.19 1.18 1.23 1.15 1.14 1.11 1.15 1.30 1.48 1.66 1.86 2.07 2.09 2.11 2.13 2.17 2.26 2.33 2.41 2.49 2.53 2.52 2.52 2.54 2.52 2.42 2.34 2.21 2.12
1.34 1.49 1.27 1.07 0.99 1.03 1.12 1.25 1.35 1.46 1.53 1.44 1.33 1.24 1.25 1.25 1.21 1.27 1.27 1.21 1.18 1.18 1.28 1.47 1.59 1.69 1.88 2.01 2.05 2.19 2.17 2.11 2.10 2.12 2.18 2.24 2.31 2.32 2.32 2.27 2.21 2.13 2.06 2.01
1.70 1.92 1.78 1.56 1.34 1.27 1.34 1.60 1.77 1.76 1.69 1.60 1.56 1.51 1.55 1.52 1.38 1.30 1.27 1.29 1.29 1.31 1.36 1.42 1.46 1.51 1.62 1.75 1.88 2.08 2.18 2.14 2.14 2.15 2.15 2.17 2.24 2.30 2.17 2.09 2.11 1.99 1.87 1.92
2.02 1.98 2.07 1.94 1.58 1.52 1.54 1.70 1.83 1.77 1.78 1.83 1.81 1.72 1.58 1.50 1.44 1.40 1.35 1.35 1.39 1.44 1.46 1.44 1.43 1.53 1.65 1.79 2.00 2.22 2.23 2.13 2.14 2.20 2.25 2.27 2.27 2.30 2.34 2.13 2.08 1.95 1.85 1.81
1.72 1.79 1.87 1.79 1.70 1.73 1.75 1.77 1.84 1.83 1.77 1.81 1.84 1.75 1.56 1.44 1.40 1.38 1.40 1.40 1.49 1.53 1.47 1.43 1.41 1.52 1.66 1.84 2.06 2.25 2.27 2.26 2.27 2.26 2.29 2.29 2.20 2.15 2.17 2.08 1.92 1.84 1.75 1.64
1.75 1.81 1.96 1.96 1.93 1.89 2.04 2.09 2.08 2.01 1.92 1.84 1.78 1.68 1.57 1.59 1.57 1.49 1.47 1.53 1.51 1.46 1.39 1.41 1.44 1.43 1.51 1.67 1.94 2.17 2.24 2.32 2.33 2.30 2.27 2.21 2.10 2.03 1.97 1.92 1.80 1.65 1.56 1.49
1.75 1.73 1.85 1.83 1.92 1.94 2.08 2.20 2.20 2.19 2.09 1.95 1.78 1.65 1.47 1.48 1.67 1.71 1.70 1.75 1.63 1.49 1.43 1.39 1.35 1.32 1.36 1.47 1.63 1.89 2.03 1.98 1.94 1.94 1.94 1.90 1.82 1.77 1.72 1.63 1.62 1.63 1.48 1.31
1.60 1.71 1.75 1.81 1.83 1.77 1.81 1.88 1.98 2.02 1.99 1.87 1.71 1.60 1.43 1.39 1.47 1.57 1.69 1.72 1.73 1.64 1.49 1.38 1.41 1.41 1.31 1.40 1.51 1.56 1.59 1.71 1.62 1.53 1.52 1.53 1.52 1.53 1.49 1.48 1.52 1.60 1.51 1.29
1.62 1.75 1.76 1.80 1.82 1.73 1.63 1.67 1.76 1.81 1.83 1.79 1.67 1.49 1.34 1.35 1.49 1.57 1.62 1.56 1.48 1.44 1.36 1.28 1.30 1.32 1.28 1.38 1.42 1.36 1.27 1.24 1.26 1.19 1.23 1.33 1.39 1.38 1.37 1.41 1.45 1.50 1.42 1.25
1.44 1.54 1.58 1.61 1.54 1.56 1.56 1.62 1.67 1.59 1.64 1.62 1.49 1.37 1.32 1.43 1.61 1.66 1.53 1.37 1.31 1.31 1.29 1.19 1.08 1.00 1.04 1.10 1.09 1.04 0.97 0.94 0.93 0.91 1.01 1.10 1.11 1.15 1.23 1.28 1.30 1.32 1.23 1.09
1.30 1.27 1.26 1.25 1.16 1.25 1.36 1.41 1.49 1.49 1.51 1.44 1.34 1.35 1.39 1.47 1.54 1.51 1.33 1.25 1.23 1.20 1.15 1.05 1.03 0.85 0.83 0.83 0.87 0.86 0.88 0.90 0.90 0.89 0.95 0.95 0.95 1.01 1.15 1.23 1.24 1.23 1.15 1.08
1.14 1.04 1.00 1.01 0.98 1.03 1.15 1.19 1.15 1.21 1.26 1.26 1.35 1.41 1.36 1.34 1.27 1.25 1.20 1.19 1.12 1.00 0.91 0.87 0.83 0.84 0.85 0.82 0.84 0.83 0.86 0.89 0.92 0.87 0.84 0.86 0.91 0.96 1.01 1.04 1.07 1.09 1.07 1.03
1.01 0.92 0.90 0.95 0.96 0.93 0.98 0.98 0.96 0.99 1.07 1.12 1.22 1.29 1.25 1.21 1.12 1.13 1.24 1.21 1.05 0.87 0.80 0.84 0.75 0.73 0.72 0.77 0.76 0.73 0.79 0.85 0.89 0.95 0.94 0.94 0.94 0.95 0.96 0.93 0.92 0.92 0.96 1.01
1.15 1.01 0.94 0.93 0.96 0.96 0.94 0.90 0.84 0.79 0.84 0.91 0.91 0.99 1.11 1.19 1.13 1.13 1.17 1.20 1.08 1.05 0.85 0.75 0.67 0.66 0.68 0.68 0.69 0.77 0.80 0.85 0.93 1.01 1.03 1.01 1.02 1.04 1.02 0.99 1.00 0.96 0.98 1.02
1.20 1.13 1.08 1.05 1.07 1.10 0.99 0.92 0.84 0.81 0.81 0.83 0.83 0.92 1.03 1.14 1.16 1.15 1.11 1.02 0.93 1.02 0.93 0.82 0.81 0.78 0.75 0.71 0.80 0.91 0.91 0.92 0.94 0.97 1.01 1.02 1.05 1.06 1.06 1.04 1.09 1.07 1.05 1.09
1.28 1.18 1.12 1.06 1.01 1.05 1.06 1.00 0.91 0.86 0.82 0.81 0.82 0.88 1.01 1.08 1.11 1.05 1.02 0.99 0.93 0.91 0.88 0.93 0.94 0.92 0.88 0.81 0.89 0.94 0.96 0.99 1.01 0.99 0.95 0.96 0.99 0.98 1.03 1.05 1.06 1.07 1.08 1.10
1.41 1.26 1.13 1.04 1.01 0.98 0.99 0.99 0.93 0.82 0.76 0.79 0.75 0.77 0.85 0.95 1.04 1.02 0.95 0.88 0.84 0.80 0.83 0.89 0.90 0.97 0.94 0.94 0.94 0.94 0.95 1.03 1.08 1.04 0.99 1.00 1.03 1.04 1.05 1.04 1.00 0.99 1.02 1.08
1.47 1.35 1.23 1.10 0.98 0.93 0.94 0.96 0.96 0.91 0.84 0.83 0.80 0.82 0.86 0.86 0.87 0.93 0.99 0.94 0.87 0.83 0.85 0.87 0.86 0.90 0.90 0.94 1.01 1.03 1.01 1.05 1.06 1.04 1.05 1.07 1.12 1.14 1.06 0.96 0.91 0.89 0.89 0.91
1.35 1.29 1.19 1.10 1.00 0.91 0.91 0.94 0.96 0.95 0.93 0.94 0.92 0.92 1.00 0.99 0.96 0.95 0.92 0.87 0.82 0.80 0.82 0.81 0.80 0.80 0.78 0.77 0.80 0.83 0.86 0.89 0.94 0.99 1.04 1.07 1.06 1.04 0.97 0.90 0.87 0.85 0.84 0.82